Location: Broletto
(44.6000°N, 10.5833°E)
Time: 06:46:31
(UTC+00:00)

Cosmos 1943 - Pass Details

Date: 18 April 2021
Orbit: 835 x 849 km, 71.0° (Epoch: 05 May)

Event Time Altitude Azimuth Distance (km) Brightness Sun altitude
Rises 22:42:55 0° 333° (NNW) 3,393 7.3 -33.7°
Reaches altitude 10° 22:45:22 10° 332° (NNW) 2,456 6.3 -33.8°
Enters shadow 22:49:01 42° 324° (NW) 1,184 4.2 -33.9°
